Location: Bosdarros
(43.2167°N, 0.3667°W)
Time: 03:12:04
(UTC+00:00)

SL-4 R/B - Pass Details

Date: 22 April 2021
Orbit: 427 x 663 km, 51.6° (Epoch: 15 May)

Event Time Altitude Azimuth Distance (km) Brightness Sun altitude
Rises 19:43:05 0° 217° (SW) 2,701 5.7 -9.3°
Reaches altitude 10° 19:45:18 10° 211° (SSW) 1,851 4.8 -9.7°
Maximum altitude 19:49:21 45° 138° (SE) 807 2.4 -10.3°
Drops below altitude 10° 19:53:43 10° 66° (ENE) 1,995 4.5 -11.0°
Sets 19:56:11 0° 60° (ENE) 2,936 5.4 -11.4°
